sat.trackr.live / text

‹ back to catalog

STARLINK-35982

NORAD 66828 · 2025-280H

PAYLOAD ACTIVE UNKNOWN

§ Identity

Operator
Country
US
Launch date
2025-12-02
Launch site
AFWTR
Launch vehicle
Mass (kg)
RCS (m²)

Purposes: comms

External: N2YO · Heavens-Above · Gunter

§ Orbital elements

Epoch: 2026-09-20T13:34:56.758080Z

Period
96.11 min
Inclination
70.0006°
Eccentricity
0.0003187
Mean motion
14.98343301 rev/d
Perigee alt
569.8 km
Apogee alt
574.2 km
Semi-major
6,950.2 km
B*
3.7045e-4
RAAN
203.2155°
Arg perigee
260.9659°
Mean anomaly
99.1139°
Rev number
4,526

§ Raw data

STARLINK-359821 66828U 25280H   26263.56593470  .00004331  00000+0  37045-3 0  99972 66828  70.0006 203.2155 0003187 260.9659  99.1139 14.98343301 45264

JSON: /api/v1/satellites/66828 · /tle

For live sub-satellite position, see the globe view (requires WebGL).

§ Visibility from observer

Set your observer location to see the next 7 days of passes ≥ 10°. The values pass through the URL so the page stays shareable.

No JS? Fill the form by hand. The geolocation button needs JavaScript.